Weather History for Carroll, IA

Change the Weather History Date:

Saturday, January 11, 2014

  Actual Average Record
Temperature  
Mean Temperature 24 °F -  
Max Temperature 32 °F 25 °F 55 °F (2002)
Min Temperature 17 °F 6 °F -17 °F (1974)
Degree Days  
Heating Degree Days 40    
Moisture  
Dew Point 26 °F    
Average Humidity 99    
Maximum Humidity 100    
Minimum Humidity 86    
Precipitation  
Precipitation 0.00 in - - ()
Sea Level Pressure  
Sea Level Pressure 29.69 in    
Wind  
Wind Speed 12 mph (West)    
Max Wind Speed 24 mph    
Max Gust Speed 31 mph    
Visibility 9 miles    
Events      
Averages and records for this station are not official NWS values.
T = Trace of Precipitation, MM = Missing Value Source: NWS Daily Summary

Daily Weather History Graph

Daily Weather History Graph

Search for Another Location

Airport:

Trip Planner

Search our weather history database for the weather conditions in past years. The results will help you decide how hot, cold, wet, or windy it might be!

Date:

Astronomy

Jan. 11, 2014 Rise Set
Actual Time 7:46 AM CST 5:08 PM CST
Civil Twilight 7:15 AM CST 5:39 PM CST
Nautical Twilight 6:40 AM CST 6:14 PM CST
Astronomical Twilight 6:06 AM CST 6:47 PM CST
Moon 1:53 PM CST (1/11) 3:50 AM CST (1/11)
Length of Visible Light 10h 24m
Length of Day
9h 22m
Waxing Gibbous, 83% of the Moon is Illuminated
Jan 11
Waxing Gibbous
Jan 15
Full
Jan 23
Last Quarter
Jan 30
New
Feb 6
First Quarter

Hourly Weather History & Observations

Time (CST) Temp. Windchill Dew Point Humidity Pressure Visibility Wind Dir Wind Speed Gust Speed Precip Events Conditions
12:15 AM 32.0 °F 22.1 °F 32.0 °F 100% 29.55 in 3.0 mi WNW 13.8 mph - N/A   Overcast
12:35 AM 32.0 °F 24.2 °F 32.0 °F 100% 29.55 in 3.0 mi WNW 9.2 mph 15.0 mph N/A   Overcast
12:55 AM 32.0 °F 24.2 °F 32.0 °F 100% 29.56 in 3.0 mi WNW 9.2 mph 15.0 mph N/A   Overcast
1:15 AM 30.2 °F 20.8 °F 30.2 °F 100% 29.56 in 3.0 mi WNW 11.5 mph - N/A   Overcast
1:35 AM 30.2 °F 20.8 °F 30.2 °F 100% 29.56 in 4.0 mi WNW 11.5 mph - N/A   Overcast
1:55 AM 26.6 °F 17.5 °F 26.6 °F 100% 29.56 in 3.0 mi West 9.2 mph - N/A   Mostly Cloudy
2:15 AM 26.6 °F 20.0 °F 26.6 °F 100% 29.56 in 4.0 mi West 5.8 mph - N/A   Partly Cloudy
2:35 AM 26.6 °F 21.2 °F 26.6 °F 100% 29.56 in 5.0 mi WNW 4.6 mph - N/A   Clear
2:55 AM 26.6 °F 16.2 °F 26.6 °F 100% 29.56 in 7.0 mi WNW 11.5 mph - N/A   Clear
3:15 AM 26.6 °F 16.2 °F 26.6 °F 100% 29.56 in 9.0 mi West 11.5 mph - N/A   Clear
3:35 AM 26.6 °F 15.2 °F 26.6 °F 100% 29.56 in 10.0 mi WNW 13.8 mph - N/A   Clear
3:55 AM 26.6 °F 16.2 °F 26.6 °F 100% 29.56 in 10.0 mi West 11.5 mph - N/A   Clear
4:15 AM 24.8 °F 15.3 °F 24.8 °F 100% 29.57 in 10.0 mi WNW 9.2 mph - N/A   Clear
4:35 AM 24.8 °F 14.0 °F 24.8 °F 100% 29.57 in 10.0 mi West 11.5 mph - N/A   Clear
4:55 AM 24.8 °F 14.0 °F 24.8 °F 100% 29.57 in 10.0 mi West 11.5 mph - N/A   Clear
5:15 AM 24.8 °F 14.0 °F 24.8 °F 100% 29.58 in 10.0 mi West 11.5 mph - N/A   Clear
5:35 AM 24.8 °F 12.9 °F 24.8 °F 100% 29.58 in 10.0 mi West 13.8 mph - N/A   Clear
5:55 AM 24.8 °F 12.9 °F 24.8 °F 100% 29.59 in 10.0 mi West 13.8 mph - N/A   Clear
6:15 AM 24.8 °F 13.4 °F 24.8 °F 100% 29.59 in 10.0 mi West 12.7 mph - N/A   Clear
6:35 AM 24.8 °F 13.4 °F 23.0 °F 93% 29.60 in 10.0 mi West 12.7 mph - N/A   Clear
6:55 AM 23.0 °F 10.6 °F 23.0 °F 100% 29.60 in 10.0 mi West 13.8 mph - N/A   Clear
7:15 AM 23.0 °F 13.1 °F 23.0 °F 100% 29.61 in 10.0 mi West 9.2 mph - N/A   Clear
7:35 AM 24.8 °F 13.4 °F 23.0 °F 93% 29.62 in 10.0 mi WNW 12.7 mph - N/A   Clear
7:55 AM 24.8 °F 14.0 °F 23.0 °F 93% 29.63 in 10.0 mi WNW 11.5 mph - N/A   Clear
8:15 AM 24.8 °F 14.0 °F 23.0 °F 93% 29.64 in 10.0 mi WNW 11.5 mph - N/A   Clear
8:35 AM 24.8 °F 12.9 °F 24.8 °F 100% 29.66 in 10.0 mi WNW 13.8 mph - N/A   Clear
8:55 AM 26.6 °F 14.7 °F 26.6 °F 100% 29.66 in 10.0 mi WNW 15.0 mph - N/A   Clear
9:15 AM 28.4 °F 16.2 °F 26.6 °F 93% 29.67 in 10.0 mi NW 17.3 mph - N/A   Clear
9:35 AM 28.4 °F 16.2 °F 26.6 °F 93% 29.68 in 10.0 mi NW 17.3 mph 23.0 mph N/A   Clear
9:55 AM 28.4 °F 16.2 °F 26.6 °F 93% 29.69 in 10.0 mi NW 17.3 mph - N/A   Clear
10:15 AM 30.2 °F 18.5 °F 26.6 °F 86% 29.70 in 10.0 mi NW 17.3 mph - N/A   Clear
10:35 AM 30.2 °F 16.5 °F 26.6 °F 86% 29.71 in 10.0 mi NW 24.2 mph - N/A   Partly Cloudy
10:55 AM 28.4 °F 14.1 °F 26.6 °F 93% 29.73 in 10.0 mi NW 24.2 mph 31.1 mph N/A   Mostly Cloudy
11:15 AM 26.6 °F 11.7 °F 24.8 °F 93% 29.74 in 10.0 mi NW 24.2 mph 29.9 mph N/A   Overcast
11:35 AM 26.6 °F 12.0 °F 26.6 °F 100% 29.74 in 10.0 mi NNW 23.0 mph - N/A   Overcast
11:55 AM 26.6 °F 13.4 °F 24.8 °F 93% 29.75 in 10.0 mi NW 18.4 mph 24.2 mph N/A   Overcast
12:15 PM 26.6 °F 13.8 °F 26.6 °F 100% 29.74 in - NW 17.3 mph 24.2 mph N/A   Overcast
12:35 PM 26.6 °F 13.1 °F 26.6 °F 100% 29.74 in 10.0 mi NW 19.6 mph 27.6 mph N/A   Overcast
12:55 PM 28.4 °F 16.2 °F 28.4 °F 100% 29.73 in 10.0 mi NW 17.3 mph 24.2 mph N/A   Overcast
1:15 PM 28.4 °F 15.4 °F 28.4 °F 100% 29.73 in 10.0 mi NW 19.6 mph 25.3 mph N/A   Overcast
1:35 PM 28.4 °F 15.8 °F 28.4 °F 100% 29.74 in 10.0 mi NW 18.4 mph 24.2 mph N/A   Overcast
1:55 PM - - - N/A% 29.74 in 10.0 mi WNW 13.8 mph 21.9 mph N/A   Overcast
2:15 PM 30.2 °F 17.8 °F 30.2 °F 100% 29.75 in 10.0 mi WNW 19.6 mph - N/A   Overcast
2:35 PM 30.2 °F 18.5 °F 30.2 °F 100% 29.75 in 10.0 mi WNW 17.3 mph - N/A   Overcast
2:55 PM 30.2 °F 18.5 °F 30.2 °F 100% 29.75 in 10.0 mi NW 17.3 mph - N/A   Overcast
3:15 PM 30.2 °F 19.3 °F 30.2 °F 100% 29.76 in 10.0 mi WNW 15.0 mph 23.0 mph N/A   Overcast
3:35 PM 30.2 °F 20.2 °F 30.2 °F 100% 29.77 in 10.0 mi WNW 12.7 mph 19.6 mph N/A   Overcast
3:55 PM 30.2 °F 20.2 °F 30.2 °F 100% 29.78 in 10.0 mi WNW 12.7 mph - N/A   Overcast
4:15 PM 30.2 °F 20.2 °F 30.2 °F 100% 29.78 in 10.0 mi WNW 12.7 mph 19.6 mph N/A   Overcast
4:35 PM 30.2 °F 22.6 °F 30.2 °F 100% 29.78 in 10.0 mi WNW 8.1 mph - N/A   Mostly Cloudy
4:55 PM 28.4 °F 22.2 °F 28.4 °F 100% 29.79 in 10.0 mi West 5.8 mph 11.5 mph N/A   Clear
5:15 PM 26.6 °F - 26.6 °F 100% 29.79 in 10.0 mi Calm Calm - N/A   Clear
5:35 PM 26.6 °F 21.2 °F 26.6 °F 100% 29.79 in 10.0 mi SW 4.6 mph - N/A   Clear
5:55 PM 23.0 °F 14.7 °F 23.0 °F 100% 29.79 in 10.0 mi West 6.9 mph - N/A   Clear
6:15 PM 21.2 °F 14.9 °F 21.2 °F 100% 29.79 in 10.0 mi South 4.6 mph - N/A   Clear
6:35 PM - - - N/A% 29.79 in 10.0 mi Calm Calm - N/A   Clear
6:55 PM 21.2 °F 16.4 °F 21.2 °F 100% 29.79 in 10.0 mi South 3.5 mph - N/A   Clear
7:15 PM 19.4 °F 12.8 °F 19.4 °F 100% 29.78 in 8.0 mi SSW 4.6 mph - N/A   Clear
7:35 PM 17.6 °F - 17.6 °F 100% 29.77 in 9.0 mi Calm Calm - N/A   Clear
7:55 PM 19.4 °F 12.8 °F 19.4 °F 100% 29.78 in 9.0 mi South 4.6 mph - N/A   Clear
8:15 PM 21.2 °F 16.4 °F 21.2 °F 100% 29.77 in 10.0 mi SW 3.5 mph - N/A   Clear
8:35 PM 19.4 °F 14.3 °F 19.4 °F 100% 29.77 in 10.0 mi SSW 3.5 mph - N/A   Clear
8:55 PM 24.8 °F - 24.8 °F 100% 29.77 in 10.0 mi Calm Calm - N/A   Clear
9:15 PM 24.8 °F 16.1 °F 24.8 °F 100% 29.77 in 10.0 mi SSW 8.1 mph - N/A   Clear
9:35 PM 26.6 °F 18.2 °F 26.6 °F 100% 29.77 in 10.0 mi SSW 8.1 mph - N/A   Clear
9:55 PM 26.6 °F 17.5 °F 26.6 °F 100% 29.76 in 10.0 mi SSW 9.2 mph - N/A   Clear
10:15 PM 26.6 °F 16.8 °F 26.6 °F 100% 29.76 in 10.0 mi SSW 10.4 mph - N/A   Clear
10:35 PM 28.4 °F 18.0 °F 28.4 °F 100% 29.76 in 10.0 mi SSW 12.7 mph - N/A   Clear
10:55 PM 28.4 °F 18.5 °F 28.4 °F 100% 29.75 in 10.0 mi SSW 11.5 mph - N/A   Clear
11:15 PM 26.6 °F 17.5 °F 26.6 °F 100% 29.74 in 10.0 mi SSW 9.2 mph - N/A   Clear
11:35 PM 26.6 °F 18.2 °F 26.6 °F 100% 29.72 in 10.0 mi South 8.1 mph - N/A   Clear
11:55 PM 28.4 °F 17.5 °F 28.4 °F 100% 29.71 in 10.0 mi South 13.8 mph - N/A   Clear